DLR-TUBSAT

Last updated on Sat Dec 13 2025 00:02:30 GMT+0000 (Coordinated Universal Time)

1 25757U 99029B 25346.18336151 .00000249 00000+0 73020-4 0 9993 2 25757 98.6563 330.6799 0013861 194.5275 165.5522 14.52357346406101
UTC large
Height (km)
Speed (km/s)
/
Latitude / Longitude
Inclination (degrees)
Orbital Period (minutes)
Azimuth
Elevation
Range (km)
Doppler Factor

Next 0 passes for location: London (51.5072 / 0.1276)

Sorry there are no passes over London.